VLG1XG LEZL-GCRR

Flight info

Callsign VLG1XG
Flight time 2h 1m
Altitude 35000
Route CLANA N857 KORNO UN857 TERTO
Aircraft A320/M-SDE3FGHIRWY/LB1

Departure

Time 2026-05-04 07:33
Airport Seville Airport (LEZL)

Arrival

Time 2026-05-04 09:34
Airport César Manrique-Lanzarote Airport (GCRR)
Time Latitude Longitude Altitude Speed Heading
2026-05-04 07:14 37.42245 -5.89914 96 ft 0 kts 314°
2026-05-04 07:23 37.42227 -5.89891 96 ft 4 kts 314°
2026-05-04 07:23 37.42209 -5.89867 94 ft 4 kts 316°
2026-05-04 07:23 37.42196 -5.89853 93 ft 2 kts 357°
2026-05-04 07:23 37.42185 -5.89856 96 ft 2 kts 45°
2026-05-04 07:24 37.42182 -5.89861 94 ft 0 kts 39°
2026-05-04 07:26 37.42173 -5.89602 95 ft 10 kts 134°
2026-05-04 07:27 37.42122 -5.89537 97 ft 11 kts 134°
2026-05-04 07:27 37.42063 -5.89460 98 ft 14 kts 134°
2026-05-04 07:27 37.41997 -5.89375 101 ft 12 kts 134°
2026-05-04 07:27 37.41983 -5.89284 99 ft 11 kts 90°
2026-05-04 07:28 37.41982 -5.89163 100 ft 16 kts 89°
2026-05-04 07:28 37.41984 -5.89005 101 ft 19 kts 90°
2026-05-04 07:28 37.41984 -5.88840 102 ft 18 kts 90°
2026-05-04 07:28 37.41985 -5.88694 103 ft 15 kts 89°
2026-05-04 07:29 37.41985 -5.88564 104 ft 14 kts 90°
2026-05-04 07:29 37.41986 -5.88441 105 ft 16 kts 90°
2026-05-04 07:29 37.41986 -5.88280 105 ft 21 kts 90°
2026-05-04 07:29 37.41987 -5.88096 106 ft 21 kts 90°
2026-05-04 07:30 37.41987 -5.87911 107 ft 19 kts 90°
2026-05-04 07:30 37.41987 -5.87746 108 ft 18 kts 90°
2026-05-04 07:30 37.41988 -5.87604 109 ft 15 kts 90°
2026-05-04 07:30 37.41969 -5.87492 111 ft 12 kts 118°
2026-05-04 07:31 37.41918 -5.87433 114 ft 10 kts 158°
2026-05-04 07:31 37.41847 -5.87442 115 ft 12 kts 208°
2026-05-04 07:33 37.42230 -5.93639 2008 ft 165 kts 283°
2026-05-04 07:33 37.42490 -5.95143 2379 ft 187 kts 282°
2026-05-04 07:33 37.42778 -5.96847 2693 ft 211 kts 281°
2026-05-04 07:33 37.43096 -5.98761 3112 ft 236 kts 281°
2026-05-04 07:34 37.43441 -6.00872 3653 ft 254 kts 280°
2026-05-04 07:34 37.43506 -6.03103 4518 ft 259 kts 258°
2026-05-04 07:34 37.42790 -6.05177 5434 ft 263 kts 233°
2026-05-04 07:34 37.41387 -6.06649 6370 ft 268 kts 207°
2026-05-04 07:35 37.39554 -6.07170 7232 ft 277 kts 182°
2026-05-04 07:35 37.37617 -6.07043 8131 ft 280 kts 180°
2026-05-04 07:35 37.35665 -6.06880 9005 ft 283 kts 180°
2026-05-04 07:35 37.33690 -6.06712 9876 ft 286 kts 181°
2026-05-04 07:36 37.32369 -6.06602 10346 ft 291 kts 181°
2026-05-04 07:36 37.30262 -6.06436 10606 ft 315 kts 181°
2026-05-04 07:38 37.14162 -6.06741 15409 ft 332 kts 210°
2026-05-04 07:38 37.12191 -6.08220 16061 ft 329 kts 221°
2026-05-04 07:38 37.10424 -6.10051 16732 ft 331 kts 224°
2026-05-04 07:38 37.08648 -6.11904 17395 ft 333 kts 224°
2026-05-04 07:39 37.06858 -6.13766 18008 ft 337 kts 224°
2026-05-04 07:39 37.05046 -6.15653 18577 ft 341 kts 224°
2026-05-04 07:39 37.03214 -6.17561 19129 ft 344 kts 224°
2026-05-04 07:39 37.01375 -6.19482 19712 ft 345 kts 224°
2026-05-04 07:40 36.99536 -6.21432 20303 ft 347 kts 224°
2026-05-04 07:40 36.97696 -6.23398 20889 ft 349 kts 224°
2026-05-04 07:40 36.95842 -6.25380 21464 ft 352 kts 224°
2026-05-04 07:40 36.93976 -6.27370 22042 ft 354 kts 224°
2026-05-04 07:41 36.92095 -6.29366 22613 ft 356 kts 224°
2026-05-04 07:41 36.90200 -6.31370 23182 ft 358 kts 224°
2026-05-04 07:41 36.88289 -6.33389 23714 ft 360 kts 224°
2026-05-04 07:41 36.86370 -6.35417 24163 ft 362 kts 224°
2026-05-04 07:42 36.84443 -6.37454 24617 ft 364 kts 224°
2026-05-04 07:42 36.82510 -6.39497 25067 ft 365 kts 224°
2026-05-04 07:42 36.80567 -6.41549 25486 ft 366 kts 224°
2026-05-04 07:42 36.78619 -6.43600 25924 ft 367 kts 224°
2026-05-04 07:43 36.76661 -6.45658 26350 ft 368 kts 224°
2026-05-04 07:43 36.74701 -6.47720 26757 ft 370 kts 225°
2026-05-04 07:43 36.72728 -6.49798 27132 ft 372 kts 225°
2026-05-04 07:43 36.70748 -6.51885 27521 ft 374 kts 225°
2026-05-04 07:44 36.68759 -6.53977 27911 ft 375 kts 225°
2026-05-04 07:44 36.66763 -6.56074 28299 ft 376 kts 225°
2026-05-04 07:44 36.64761 -6.58174 28673 ft 378 kts 225°
2026-05-04 07:44 36.62750 -6.60284 29046 ft 379 kts 225°
2026-05-04 07:45 36.60728 -6.62403 29407 ft 380 kts 225°
2026-05-04 07:45 36.58699 -6.64530 29759 ft 382 kts 225°
2026-05-04 07:45 36.56662 -6.66663 30104 ft 383 kts 225°
2026-05-04 07:45 36.54623 -6.68793 30365 ft 384 kts 225°
2026-05-04 07:46 36.52572 -6.70935 30648 ft 385 kts 225°
2026-05-04 07:46 36.50514 -6.73082 30904 ft 387 kts 225°
2026-05-04 07:46 36.48444 -6.75233 31148 ft 388 kts 225°
2026-05-04 07:46 36.46368 -6.77378 31388 ft 390 kts 225°
2026-05-04 07:47 36.44278 -6.79530 31666 ft 390 kts 225°
2026-05-04 07:47 36.42218 -6.81647 32006 ft 389 kts 225°
2026-05-04 07:47 36.40137 -6.83785 32329 ft 388 kts 225°
2026-05-04 07:49 36.25671 -6.98615 34422 ft 385 kts 225°
2026-05-04 07:49 36.23606 -7.00732 34660 ft 385 kts 225°
2026-05-04 07:49 36.21547 -7.02841 34908 ft 385 kts 225°
2026-05-04 07:50 36.19482 -7.04956 35064 ft 385 kts 225°
2026-05-04 07:50 36.17429 -7.07050 35102 ft 380 kts 225°
2026-05-04 07:50 36.13374 -7.11186 35105 ft 376 kts 225°
2026-05-04 07:51 36.09341 -7.15301 35108 ft 376 kts 225°
2026-05-04 07:51 36.05298 -7.19412 35108 ft 376 kts 225°
2026-05-04 07:52 36.01259 -7.23516 35088 ft 377 kts 225°
2026-05-04 07:52 35.97204 -7.27639 35090 ft 378 kts 225°
2026-05-04 07:54 35.80933 -7.44067 35097 ft 378 kts 225°
2026-05-04 07:55 35.76853 -7.48150 35109 ft 378 kts 225°
2026-05-04 07:55 35.72761 -7.52229 35106 ft 378 kts 225°
2026-05-04 07:56 35.68673 -7.56298 35104 ft 378 kts 225°
2026-05-04 07:56 35.64577 -7.60367 35117 ft 378 kts 225°
2026-05-04 07:57 35.60484 -7.64425 35117 ft 378 kts 225°
2026-05-04 07:57 35.56390 -7.68492 35116 ft 378 kts 225°
2026-05-04 07:58 35.52305 -7.72552 35111 ft 378 kts 225°
2026-05-04 07:58 35.48236 -7.76580 35079 ft 378 kts 225°
2026-05-04 07:59 35.44099 -7.80646 35090 ft 379 kts 225°
2026-05-04 07:59 35.40018 -7.84676 35096 ft 379 kts 225°
2026-05-04 08:00 35.35912 -7.88792 35101 ft 379 kts 225°
2026-05-04 08:02 35.19559 -8.05109 35094 ft 379 kts 225°
2026-05-04 08:02 35.15494 -8.09152 35104 ft 379 kts 225°
2026-05-04 08:03 35.11379 -8.13243 35106 ft 379 kts 225°
2026-05-04 08:03 35.07312 -8.17277 35108 ft 379 kts 225°
2026-05-04 08:04 35.03191 -8.21354 35107 ft 379 kts 225°
2026-05-04 08:04 34.99121 -8.25377 35112 ft 379 kts 225°
2026-05-04 08:05 34.95019 -8.29422 35086 ft 379 kts 225°
2026-05-04 08:05 34.90932 -8.33455 35100 ft 378 kts 225°
2026-05-04 08:06 34.86841 -8.37481 35105 ft 378 kts 225°
2026-05-04 08:06 34.82748 -8.41502 35112 ft 377 kts 225°
2026-05-04 08:08 34.66414 -8.57512 35099 ft 377 kts 225°
2026-05-04 08:11 34.48056 -8.75412 35118 ft 375 kts 225°
2026-05-04 08:11 34.41940 -8.81328 35118 ft 375 kts 225°
2026-05-04 08:12 34.37876 -8.85227 35101 ft 375 kts 225°
2026-05-04 08:12 34.33773 -8.89176 35109 ft 374 kts 225°
2026-05-04 08:13 34.29727 -8.93075 35107 ft 374 kts 225°
2026-05-04 08:13 34.25650 -8.96979 35110 ft 374 kts 225°
2026-05-04 08:14 34.21533 -9.00902 35120 ft 374 kts 225°
2026-05-04 08:16 34.05195 -9.16490 35111 ft 377 kts 224°
2026-05-04 08:16 34.01083 -9.20402 35113 ft 377 kts 225°
2026-05-04 08:17 33.96966 -9.24320 35114 ft 377 kts 224°
2026-05-04 08:17 33.92853 -9.28228 35116 ft 377 kts 224°
2026-05-04 08:19 33.76324 -9.43871 35099 ft 380 kts 224°
2026-05-04 08:20 33.72858 -9.47129 35098 ft 381 kts 224°
2026-05-04 08:20 33.68654 -9.51082 35103 ft 382 kts 224°
2026-05-04 08:21 33.64493 -9.55000 35106 ft 383 kts 224°
2026-05-04 08:21 33.60292 -9.58948 35109 ft 384 kts 223°
2026-05-04 08:22 33.56088 -9.62890 35091 ft 384 kts 223°
2026-05-04 08:24 33.39155 -9.78728 35109 ft 387 kts 223°
2026-05-04 08:24 33.34905 -9.82694 35112 ft 387 kts 223°
2026-05-04 08:25 33.30659 -9.86655 35112 ft 388 kts 223°
2026-05-04 08:25 33.26392 -9.90609 35090 ft 388 kts 223°
2026-05-04 08:27 33.09323 -10.06441 35115 ft 389 kts 223°
2026-05-04 08:28 33.05051 -10.10382 35110 ft 389 kts 223°
2026-05-04 08:28 33.00776 -10.14330 35106 ft 389 kts 223°
2026-05-04 08:29 32.96500 -10.18262 35110 ft 389 kts 223°
2026-05-04 08:31 32.79420 -10.33947 35124 ft 388 kts 223°
2026-05-04 08:33 32.62293 -10.49578 35111 ft 388 kts 222°
2026-05-04 08:35 32.45162 -10.65140 35108 ft 388 kts 222°
2026-05-04 08:35 32.40875 -10.69023 35089 ft 389 kts 222°
2026-05-04 08:37 32.25805 -10.82623 35105 ft 389 kts 221°
2026-05-04 08:38 32.21503 -10.86505 35107 ft 389 kts 221°
2026-05-04 08:38 32.17190 -10.90382 35111 ft 389 kts 221°
2026-05-04 08:40 31.99902 -11.05879 35105 ft 391 kts 221°
2026-05-04 08:41 31.95567 -11.09750 35111 ft 391 kts 221°
2026-05-04 08:41 31.91234 -11.13627 35112 ft 391 kts 221°
2026-05-04 08:42 31.86887 -11.17516 35111 ft 391 kts 221°
2026-05-04 08:42 31.82549 -11.21387 35098 ft 392 kts 221°
2026-05-04 08:43 31.78202 -11.25249 35101 ft 392 kts 221°
2026-05-04 08:43 31.73852 -11.29107 35104 ft 392 kts 221°
2026-05-04 08:44 31.69515 -11.32979 35106 ft 392 kts 221°
2026-05-04 08:46 31.52171 -11.48408 35091 ft 391 kts 222°
2026-05-04 08:46 31.47838 -11.52263 35099 ft 391 kts 222°
2026-05-04 08:47 31.43507 -11.56105 35109 ft 390 kts 222°
2026-05-04 08:47 31.39173 -11.59937 35112 ft 390 kts 222°
2026-05-04 08:48 31.34836 -11.63753 35110 ft 390 kts 222°
2026-05-04 08:48 31.30506 -11.67572 35111 ft 390 kts 222°
2026-05-04 08:49 31.26176 -11.71386 35112 ft 390 kts 222°
2026-05-04 08:50 31.11086 -11.84678 35119 ft 387 kts 223°
2026-05-04 08:51 31.06782 -11.88448 35117 ft 387 kts 223°
2026-05-04 08:51 31.02476 -11.92211 35116 ft 387 kts 223°
2026-05-04 08:52 30.98176 -11.95978 35117 ft 386 kts 223°
2026-05-04 08:52 30.93879 -11.99740 35099 ft 386 kts 223°
2026-05-04 08:54 30.76738 -12.14677 35119 ft 384 kts 223°
2026-05-04 08:55 30.72464 -12.18390 35118 ft 383 kts 223°
2026-05-04 08:55 30.68197 -12.22097 35118 ft 383 kts 223°
2026-05-04 09:01 30.23943 -12.60182 31664 ft 366 kts 222°
2026-05-04 09:01 30.21897 -12.61925 31418 ft 365 kts 222°
2026-05-04 09:01 30.19856 -12.63664 31172 ft 364 kts 222°
2026-05-04 09:01 30.17825 -12.65394 30936 ft 363 kts 222°
2026-05-04 09:02 30.15795 -12.67124 30702 ft 362 kts 222°
2026-05-04 09:02 30.13772 -12.68850 30466 ft 361 kts 221°
2026-05-04 09:02 30.11754 -12.70572 30224 ft 360 kts 221°
2026-05-04 09:02 30.09865 -12.72434 29955 ft 354 kts 230°
2026-05-04 09:03 30.08228 -12.74533 29684 ft 352 kts 232°
2026-05-04 09:03 30.06600 -12.76640 29409 ft 351 kts 232°
2026-05-04 09:03 30.04976 -12.78737 29144 ft 349 kts 232°
2026-05-04 09:03 30.03362 -12.80817 28878 ft 348 kts 232°
2026-05-04 09:04 30.01749 -12.82893 28615 ft 346 kts 232°
2026-05-04 09:04 30.00156 -12.84941 28227 ft 340 kts 232°
2026-05-04 09:04 29.98581 -12.86964 27778 ft 337 kts 232°
2026-05-04 09:04 29.97026 -12.88967 27349 ft 333 kts 232°
2026-05-04 09:05 29.95491 -12.90943 26924 ft 330 kts 232°
2026-05-04 09:05 29.93965 -12.92900 26512 ft 326 kts 231°
2026-05-04 09:05 29.92964 -12.94184 26240 ft 324 kts 232°
2026-05-04 09:05 29.91458 -12.96101 25819 ft 322 kts 229°
2026-05-04 09:06 29.89742 -12.97759 25388 ft 325 kts 218°
2026-05-04 09:07 29.74670 -13.04052 22018 ft 327 kts 204°
2026-05-04 09:08 29.72514 -13.04880 21575 ft 326 kts 204°
2026-05-04 09:08 29.70371 -13.05703 21110 ft 325 kts 204°
2026-05-04 09:08 29.68229 -13.06530 20677 ft 324 kts 204°
2026-05-04 09:08 29.66093 -13.07358 20243 ft 323 kts 204°
2026-05-04 09:09 29.63967 -13.08181 19813 ft 323 kts 204°
2026-05-04 09:09 29.61836 -13.09002 19386 ft 323 kts 203°
2026-05-04 09:09 29.59706 -13.09823 18957 ft 323 kts 203°
2026-05-04 09:09 29.57576 -13.10646 18536 ft 323 kts 203°
2026-05-04 09:10 29.55444 -13.11469 18057 ft 323 kts 203°
2026-05-04 09:10 29.53323 -13.12287 17648 ft 321 kts 203°
2026-05-04 09:10 29.51208 -13.13103 17230 ft 320 kts 203°
2026-05-04 09:10 29.49100 -13.13915 16881 ft 320 kts 203°
2026-05-04 09:11 29.46985 -13.14731 16581 ft 320 kts 203°
2026-05-04 09:11 29.44880 -13.15542 16257 ft 319 kts 203°
2026-05-04 09:11 29.42781 -13.16348 15953 ft 317 kts 203°
2026-05-04 09:11 29.40695 -13.17148 15641 ft 315 kts 203°
2026-05-04 09:12 29.38620 -13.17945 15336 ft 313 kts 203°
2026-05-04 09:12 29.36561 -13.18737 15033 ft 312 kts 203°
2026-05-04 09:14 29.22087 -13.23366 12838 ft 304 kts 201°
2026-05-04 09:14 29.20057 -13.24043 12407 ft 304 kts 201°
2026-05-04 09:14 29.18032 -13.24731 12040 ft 302 kts 201°
2026-05-04 09:14 29.16020 -13.25416 11677 ft 301 kts 201°
2026-05-04 09:15 29.14020 -13.26095 11341 ft 299 kts 201°
2026-05-04 09:15 29.12036 -13.26766 10996 ft 297 kts 201°
2026-05-04 09:15 29.10053 -13.27435 10651 ft 297 kts 201°
2026-05-04 09:15 29.08075 -13.28102 10303 ft 296 kts 201°
2026-05-04 09:17 28.93365 -13.33231 8162 ft 270 kts 202°
2026-05-04 09:18 28.91607 -13.33850 8024 ft 260 kts 194°
2026-05-04 09:18 28.89811 -13.33920 7818 ft 258 kts 174°
2026-05-04 09:18 28.88101 -13.33309 7700 ft 261 kts 156°
2026-05-04 09:18 28.86468 -13.32383 7573 ft 262 kts 156°
2026-05-04 09:19 28.84836 -13.31460 7453 ft 262 kts 156°
2026-05-04 09:19 28.83228 -13.30555 7330 ft 261 kts 156°
2026-05-04 09:19 28.81583 -13.29631 7219 ft 260 kts 156°
2026-05-04 09:19 28.79980 -13.28734 7102 ft 260 kts 156°
2026-05-04 09:20 28.78301 -13.28008 6981 ft 257 kts 170°
2026-05-04 09:20 28.76541 -13.27823 6870 ft 253 kts 186°
2026-05-04 09:20 28.74786 -13.27925 6747 ft 252 kts 186°
2026-05-04 09:20 28.73034 -13.28019 6630 ft 253 kts 185°
2026-05-04 09:21 28.71277 -13.28109 6509 ft 252 kts 185°
2026-05-04 09:21 28.69523 -13.28211 6380 ft 252 kts 189°
2026-05-04 09:21 28.67903 -13.28829 6254 ft 245 kts 217°
2026-05-04 09:21 28.66719 -13.30161 6130 ft 238 kts 242°
2026-05-04 09:22 28.66160 -13.31903 6005 ft 233 kts 266°
2026-05-04 09:22 28.66280 -13.33715 5881 ft 230 kts 288°
2026-05-04 09:22 28.66751 -13.35456 5759 ft 230 kts 289°
2026-05-04 09:22 28.67227 -13.37194 5629 ft 230 kts 289°
2026-05-04 09:23 28.67703 -13.38937 5513 ft 231 kts 289°
2026-05-04 09:23 28.68179 -13.40691 5384 ft 232 kts 289°
2026-05-04 09:23 28.68657 -13.42449 5267 ft 233 kts 289°
2026-05-04 09:23 28.69137 -13.44207 5149 ft 233 kts 290°
2026-05-04 09:25 28.72489 -13.56629 4287 ft 235 kts 290°
2026-05-04 09:25 28.72970 -13.58409 4140 ft 236 kts 289°
2026-05-04 09:26 28.73444 -13.60185 3955 ft 231 kts 289°
2026-05-04 09:26 28.73903 -13.61908 3774 ft 224 kts 290°
2026-05-04 09:26 28.74349 -13.63585 3563 ft 218 kts 289°
2026-05-04 09:26 28.74784 -13.65215 3397 ft 212 kts 289°
2026-05-04 09:27 28.75371 -13.66692 3369 ft 199 kts 307°
2026-05-04 09:27 28.76288 -13.67835 3357 ft 194 kts 325°
2026-05-04 09:27 28.77442 -13.68597 3293 ft 191 kts 342°
2026-05-04 09:27 28.78725 -13.68923 3158 ft 189 kts 359°
2026-05-04 09:28 28.80022 -13.68794 2972 ft 186 kts 16°
2026-05-04 09:28 28.81201 -13.68252 2781 ft 180 kts 27°
2026-05-04 09:28 28.82306 -13.67612 2523 ft 176 kts 27°
2026-05-04 09:28 28.83382 -13.66989 2273 ft 172 kts 27°
2026-05-04 09:29 28.84418 -13.66390 2047 ft 161 kts 27°
2026-05-04 09:29 28.85387 -13.65829 1831 ft 151 kts 27°
2026-05-04 09:29 28.86279 -13.65313 1656 ft 137 kts 27°
2026-05-04 09:29 28.87111 -13.64832 1467 ft 132 kts 28°
2026-05-04 09:30 28.87925 -13.64360 1286 ft 130 kts 27°
2026-05-04 09:30 28.88726 -13.63896 1117 ft 130 kts 29°
2026-05-04 09:30 28.89526 -13.63433 945 ft 128 kts 27°
2026-05-04 09:30 28.90317 -13.62974 801 ft 130 kts 27°
2026-05-04 09:31 28.91134 -13.62513 648 ft 130 kts 26°
2026-05-04 09:31 28.91932 -13.62044 429 ft 131 kts 29°
2026-05-04 09:31 28.92739 -13.61569 279 ft 130 kts 28°
2026-05-04 09:31 28.93552 -13.61103 86 ft 131 kts 30°
2026-05-04 09:32 28.94313 -13.60655 32 ft 110 kts 27°
2026-05-04 09:32 28.94844 -13.60351 45 ft 61 kts 26°
2026-05-04 09:34 28.95284 -13.60453 50 ft 9 kts 206°
2026-05-04 09:34 28.95228 -13.60485 50 ft 9 kts 206°
2026-05-04 09:34 28.95176 -13.60515 50 ft 8 kts 206°
2026-05-04 09:34 28.95128 -13.60543 50 ft 7 kts 210°
2026-05-04 09:35 28.95088 -13.60576 50 ft 7 kts 220°
2026-05-04 09:35 28.95056 -13.60612 50 ft 6 kts 239°
2026-05-04 09:35 28.95065 -13.60651 50 ft 5 kts 296°
2026-05-04 09:35 28.95080 -13.60685 50 ft 4 kts 296°
2026-05-04 09:37 28.95090 -13.60709 49 ft 0 kts 296°